Location: Brachbach
(49.1847°N, 9.7240°E)
Time: 01:30:53
(UTC+00:00)

ARIANE 6 FM1 Upper Stage - Pass Details

Date: 30 January 2026
Orbit: 522 x 609 km, 62.0° (Epoch: 13 February)

Event Time Altitude Azimuth Distance (km) Brightness Sun altitude
Rises 17:33:29 0° 254° (WSW) 2,697 8.2 -13.0°
Reaches altitude 10° 17:35:54 10° 266° (W) 1,794 6.7 -13.4°
Maximum altitude 17:39:28 30° 328° (NNW) 975 4.1 -14.0°
Enters shadow 17:42:36 12° 28° (NNE) 1,632 4.7 -14.5°
